TimeAKDT,TemperatureF,Dew PointF,Humidity,Sea Level PressureIn,VisibilityMPH,Wind Direction,Wind SpeedMPH,Gust SpeedMPH,PrecipitationIn,Events,Conditions,WindDirDegrees,DateUTC
12:56 AM,50.0,42.1,74,29.11,10.0,SW,24.2,33.4,0.01,Rain,Light Rain,220,2013-09-25 08:56:00
1:19 AM,50.0,41.0,71,29.09,10.0,SW,23.0,28.8,0.00,Rain,Light Rain,230,2013-09-25 09:19:00
1:56 AM,50.0,42.1,74,29.13,10.0,WSW,16.1,28.8,0.00,Rain,Light Rain,250,2013-09-25 09:56:00
2:50 AM,51.8,42.8,71,29.15,10.0,WSW,20.7,31.1,0.00,,Overcast,240,2013-09-25 10:50:00
2:56 AM,50.0,42.1,74,29.17,10.0,West,24.2,34.5,0.00,Rain,Light Rain,260,2013-09-25 10:56:00
3:56 AM,50.0,42.1,74,29.21,10.0,West,32.2,36.8,0.00,Rain,Light Rain,280,2013-09-25 11:56:00
4:56 AM,48.9,42.1,77,29.27,9.0,WNW,24.2,39.1,0.00,Rain,Light Rain,290,2013-09-25 12:56:00
5:20 AM,48.2,42.8,82,29.28,10.0,WNW,23.0,32.2,0.00,Rain,Light Rain,290,2013-09-25 13:20:00
5:56 AM,48.9,43.0,80,29.33,10.0,West,23.0,-,0.00,Rain,Light Rain,280,2013-09-25 13:56:00
6:56 AM,48.9,43.0,80,29.38,8.0,WNW,29.9,43.7,0.01,Rain,Light Rain,290,2013-09-25 14:56:00
7:43 AM,48.2,42.8,82,29.41,7.0,WNW,21.9,42.6,0.01,Rain,Light Rain,290,2013-09-25 15:43:00
7:56 AM,48.9,43.0,80,29.44,7.0,WNW,24.2,44.9,0.01,Rain,Light Rain,290,2013-09-25 15:56:00
8:21 AM,48.2,42.8,82,29.45,8.0,WNW,27.6,36.8,0.01,Rain,Light Rain,300,2013-09-25 16:21:00
8:56 AM,48.0,43.0,83,29.49,8.0,WNW,28.8,41.4,0.01,Rain,Light Rain,290,2013-09-25 16:56:00
9:56 AM,48.0,43.0,83,29.57,4.0,WNW,23.0,32.2,0.01,Rain,Light Rain,300,2013-09-25 17:56:00
10:12 AM,46.4,42.8,87,29.57,8.0,WNW,23.0,33.4,0.01,Rain,Light Rain,300,2013-09-25 18:12:00
10:56 AM,46.9,43.0,86,29.63,8.0,WNW,28.8,36.8,0.04,Rain,Light Rain,290,2013-09-25 18:56:00
11:08 AM,46.4,42.8,87,29.63,4.0,WNW,26.5,34.5,0.00,Rain,Light Rain,300,2013-09-25 19:08:00
11:39 AM,46.4,42.8,87,29.67,5.0,WNW,26.5,32.2,0.02,Rain,Light Rain,290,2013-09-25 19:39:00
11:56 AM,46.0,43.0,89,29.70,5.0,WNW,23.0,40.3,0.03,Rain,Light Rain,290,2013-09-25 19:56:00
12:00 PM,46.4,42.8,87,29.69,5.0,WNW,24.2,40.3,0.00,Rain,Light Rain,290,2013-09-25 20:00:00
12:23 PM,46.4,42.8,87,29.72,4.0,West,26.5,34.5,0.00,Rain,Light Rain,280,2013-09-25 20:23:00
12:56 PM,46.0,42.1,86,29.77,4.0,WNW,24.2,29.9,0.01,Rain,Light Rain,290,2013-09-25 20:56:00
1:34 PM,46.4,39.2,76,29.79,6.0,WNW,27.6,33.4,0.00,Rain,Light Rain,290,2013-09-25 21:34:00
1:56 PM,46.0,39.0,76,29.83,10.0,WNW,28.8,38.0,0.00,,Overcast,290,2013-09-25 21:56:00
2:14 PM,46.4,39.2,76,29.83,10.0,West,24.2,33.4,N/A,,Overcast,280,2013-09-25 22:14:00
2:56 PM,46.0,39.9,79,29.88,9.0,WNW,21.9,28.8,0.00,Rain,Light Rain,290,2013-09-25 22:56:00
3:56 PM,46.9,39.0,74,29.91,10.0,WNW,20.7,31.1,0.00,Rain,Light Rain,290,2013-09-25 23:56:00
4:31 PM,46.4,39.2,76,29.91,8.0,WNW,18.4,31.1,0.00,,Overcast,290,2013-09-26 00:31:00
4:44 PM,46.4,37.4,71,29.91,10.0,NW,25.3,29.9,0.00,Rain,Light Rain,310,2013-09-26 00:44:00
4:56 PM,46.0,39.0,76,29.94,10.0,WNW,18.4,-,0.00,Rain,Light Rain,300,2013-09-26 00:56:00
5:56 PM,46.0,39.0,76,29.98,10.0,NW,23.0,28.8,0.00,Rain,Light Rain,320,2013-09-26 01:56:00
6:52 PM,46.4,37.4,71,29.99,10.0,WNW,20.7,-,0.00,,Overcast,290,2013-09-26 02:52:00
6:56 PM,46.9,37.9,71,30.01,10.0,WNW,23.0,26.5,0.00,,Overcast,300,2013-09-26 02:56:00
7:56 PM,46.9,37.9,71,30.04,10.0,NW,19.6,26.5,0.00,,Overcast,310,2013-09-26 03:56:00
8:56 PM,46.0,37.9,73,30.07,10.0,West,17.3,-,N/A,,Mostly Cloudy,270,2013-09-26 04:56:00
9:56 PM,46.9,37.0,68,30.08,10.0,WNW,17.3,-,N/A,,Partly Cloudy,290,2013-09-26 05:56:00
10:56 PM,46.9,36.0,66,30.09,10.0,WSW,4.6,-,N/A,,Overcast,240,2013-09-26 06:56:00
11:56 PM,46.9,37.0,68,30.08,10.0,SW,10.4,-,N/A,,Partly Cloudy,230,2013-09-26 07:56:00